Grand Island, NE

5:21 PM CDT on August 25, 2016 (GMT -0500)
Central Nebraska Regional

Weather History for KGRI - March, 2014

Change the Weather History Date:

Sunday, March 23, 2014

  Actual Average Record
Temperature  
Mean Temperature 26 °F 42 °F  
Max Temperature 40 °F 54 °F 90 °F (1910)
Min Temperature 11 °F 30 °F 0 °F (1896)
Degree Days  
Heating Degree Days 39 23  
Month to date heating degree days 671 624  
Since 1 July heating degree days 5506 5385  
Cooling Degree Days 0 0  
Month to date cooling degree days 0 0  
Year to date cooling degree days 0 0  
Moisture  
Dew Point 13 °F    
Average Humidity 63    
Maximum Humidity 88    
Minimum Humidity 37    
Precipitation  
Precipitation 0.00 in 0.06 in 1.13 in (1987)
Month to date precipitation 0.13 1.22  
Year to date precipitation 0.78 2.43  
Snow  
Snow 0.00 in 0.20 in 7.70 in (1987)
Month to date snowfall 1.2 4.2  
Since 1 July snowfall 14.7 26.3  
Snow Depth 0.00 in    
Sea Level Pressure  
Sea Level Pressure 30.46 in    
Wind  
Wind Speed 9 mph (SW)    
Max Wind Speed 18 mph    
Max Gust Speed 25 mph    
Visibility 10 miles    
Events      
T = Trace of Precipitation, MM = Missing Value Source: NWS Daily Summary

Daily Weather History Graph

Daily Weather History Graph

Search for Another Location

Airport or City:

Trip Planner

Search our weather history database for the weather conditions in past years. The results will help you decide how hot, cold, wet, or windy it might be!

Date:

Astronomy

Mar. 23, 2014 Rise Set
Actual Time 7:31 AM CDT 7:48 PM CDT
Civil Twilight 7:04 AM CDT 8:16 PM CDT
Nautical Twilight 6:31 AM CDT 8:48 PM CDT
Astronomical Twilight 5:59 AM CDT 9:21 PM CDT
Moon 2:09 AM CDT (3/23) 12:12 PM CDT (3/23)
Length of Visible Light 13h 12m
Length of Day
12h 17m
Waning Gibbous, 54% of the Moon is Illuminated
Mar 23
Waning Gibbous
Mar 23
Last Quarter
Mar 30
New
Apr 7
First Quarter
Apr 15
Full

Hourly Weather History & Observations

Time (CDT) Temp. Windchill Dew Point Humidity Pressure Visibility Wind Dir Wind Speed Gust Speed Precip Events Conditions
12:53 AM 16.0 °F 7.4 °F 12.0 °F 84% 30.61 in 10.0 mi WNW 5.8 mph - N/A   Clear
1:53 AM 14.0 °F 3.9 °F 10.9 °F 88% 30.61 in 10.0 mi WNW 6.9 mph - N/A   Clear
2:53 AM 14.0 °F 3.9 °F 10.0 °F 84% 30.60 in 10.0 mi WNW 6.9 mph - N/A   Clear
3:53 AM 12.9 °F 3.8 °F 9.0 °F 84% 30.60 in 10.0 mi WNW 5.8 mph - N/A   Clear
4:53 AM 12.0 °F 1.5 °F 8.1 °F 84% 30.59 in 10.0 mi West 6.9 mph - N/A   Clear
5:53 AM 12.0 °F 1.5 °F 8.1 °F 84% 30.59 in 10.0 mi West 6.9 mph - N/A   Clear
6:53 AM 12.0 °F 4.1 °F 8.1 °F 84% 30.59 in 10.0 mi WSW 4.6 mph - N/A   Clear
7:53 AM 12.9 °F 5.2 °F 8.1 °F 81% 30.58 in 10.0 mi WSW 4.6 mph - N/A   Clear
8:53 AM 18.0 °F 8.7 °F 12.9 °F 81% 30.58 in 10.0 mi WSW 6.9 mph - N/A   Clear
9:53 AM 24.1 °F 17.0 °F 16.0 °F 71% 30.57 in 10.0 mi SW 5.8 mph - N/A   Clear
10:53 AM 28.0 °F 20.0 °F 17.1 °F 63% 30.55 in 10.0 mi SW 8.1 mph - N/A   Clear
11:53 AM 30.0 °F 22.4 °F 14.0 °F 51% 30.53 in 10.0 mi South 8.1 mph - N/A   Clear
12:53 PM 32.0 °F 24.8 °F 15.1 °F 50% 30.49 in 10.0 mi SSW 8.1 mph - N/A   Clear
1:53 PM 36.0 °F 28.5 °F 15.1 °F 43% 30.46 in 10.0 mi SSW 10.4 mph - N/A   Clear
2:53 PM 36.0 °F 28.5 °F 15.1 °F 43% 30.41 in 10.0 mi SSW 10.4 mph 21.9 mph N/A   Clear
3:53 PM 37.0 °F 29.3 °F 15.1 °F 41% 30.36 in 10.0 mi South 11.5 mph - N/A   Clear
4:53 PM 37.9 °F 28.9 °F 15.1 °F 39% 30.31 in 10.0 mi South 16.1 mph - N/A   Mostly Cloudy
5:53 PM 39.0 °F 30.3 °F 15.1 °F 38% 30.28 in 10.0 mi South 16.1 mph - N/A   Clear
6:53 PM 37.9 °F 29.6 °F 17.1 °F 43% 30.27 in 10.0 mi SSW 13.8 mph - N/A   Clear
7:53 PM 35.1 °F 29.3 °F 16.0 °F 46% 30.28 in 10.0 mi South 6.9 mph - N/A   Clear
8:53 PM 32.0 °F 24.8 °F 16.0 °F 52% 30.27 in 10.0 mi SSE 8.1 mph - N/A   Clear
9:53 PM 28.0 °F 20.8 °F 15.1 °F 58% 30.27 in 10.0 mi SE 6.9 mph - N/A   Clear
10:53 PM 30.0 °F 21.1 °F 14.0 °F 51% 30.26 in 10.0 mi SE 10.4 mph - N/A   Clear
11:53 PM 28.0 °F 20.8 °F 12.9 °F 53% 30.28 in 10.0 mi ESE 6.9 mph - N/A   Clear